Regional Weather Roundup
Issued by NWS

Home | Current Version | Previous Version | Graphics & Text | Print | Product List | Glossary On
Versions: 1 2 3 4 5 6 7 8 9 10 11 12 13 14 15 16 17 18 19 20 21 22 23 24 25 26 27 28 29 30 31 32 33 34 35 36 37 38 39 40 41 42 43 44 45 46 47 48 49 50
000
ASUS43 KBIS 200602
RWRND

NORTH DAKOTA REGIONAL WEATHER ROUNDUP
NATIONAL WEATHER SERVICE BISMARCK ND
1200 AM CST MON FEB 20 2017

NOTE: "FAIR" INDICATES FEW OR NO CLOUDS BELOW 12,000 FEET WITH NO
SIGNIFICANT WEATHER AND/OR OBSTRUCTIONS TO VISIBILITY.


NDZ001>003-009>011-017-200700-
NORTHWEST NORTH DAKOTA

CITY           SKY/WX    TMP DP  RH WIND       PRES   REMARKS
WILLISTON      FOG       33  30  88 CALM      29.61R VSB 1/2
6HR MIN TEMP:  33; 6HR MAX TEMP:  37;

MINOT          MOCLDY    33  31  92 W5        29.55R FOG
$$

NDZ018>021-031>035-040>046-200700-
SOUTHWEST NORTH DAKOTA

CITY           SKY/WX    TMP DP  RH WIND       PRES   REMARKS
BISMARCK       FAIR      37  34  89 CALM      29.52F
6HR MIN TEMP:  36; 6HR MAX TEMP:  40;

DICKINSON      CLOUDY    37  34  89 W10       29.54R
GARRISON         N/A     34  32  92 NW10      29.53S
6HR MIN TEMP:  32; 6HR MAX TEMP:  37;

HETTINGER ARPT CLOUDY    40  35  83 W12       29.55R
$$

NDZ004>008-012>016-024-026-027-054-200700-
NORTHEAST NORTH DAKOTA

CITY           SKY/WX    TMP DP  RH WIND       PRES   REMARKS
GRAND FORKS    MOCLDY    41  35  79 SE15      29.59F
GRND FRKS AFB  PTCLDY    39  39 100 S9        29.59F
DEVILS LAKE    FOG       36  36 100 SE5       29.55S VSB 1/4
$$

NDZ022-023-025-028>030-036>039-047>053-200700-
SOUTHEAST NORTH DAKOTA

CITY           SKY/WX    TMP DP  RH WIND       PRES   REMARKS
FARGO          PTCLDY    52  48  86 SE17G28   29.61F
6HR MIN TEMP:  51; 6HR MAX TEMP:  53;

JAMESTOWN      FAIR      40  40 100 S9        29.54F FOG
$$





USA.gov is the U.S. government's official web portal to all federal, state and local government web resources and services.